Flag for United Kingdom Weather past 2 weeks in Cardiff, Wales, United Kingdom

Now
66 °F

Clear.


Feels Like: 66 °F
Forecast: 60 / 71 °F
Wind: 14 mph from Northeast

Location: Wales Airport

Current Time: Sep 17, 2014 at 9:31:56 PM

Latest Report: Sep 17, 2014 at 8:50 PM


Visibility: 10 mi

Pressure: 29.83 "Hg

Humidity: 73%

Dew point: 57 °F

Location of CardiffLocation

Historic Weather in Cardiff — Graph

°F

Cardiff temperature yesterday

Maximum temperature yesterday: 70 °F (at 1:50 PM)
Minimum temperature yesterday: 57 °F (at 1:20 AM)
Average temperature yesterday: 63 °F

Past Weeks' High & Low Weather Summary

 TemperatureHumidityPressure
High72 °F (Sep 17, 5:20 PM)100% (Sep 6, 2:20 AM)30.33 "Hg (Sep 6, 2:20 AM)
Low52 °F (Sep 8, 4:50 AM)46% (Sep 8, 4:50 PM)29.80 "Hg (Sep 17, 4:20 PM)
Average61 °F79%30.09 "Hg
* Reported Sep 2 8:20 PM — Sep 17 8:20 PM, Cardiff, Weather by CustomWeather, © 2014

Note: Actual official high and low records may vary slightly from our data, if they occured in-between our weather recording intervals... More about our weather records

Advertising

Cardiff weather history for previous 24 hours

 ConditionsComfort  
Time TempWeatherWind HumidityBarometerVisibility
8:20 PM
Sep 17
66 °FSunny.14 mph73%29.80 "Hg10 mi
7:50 PM66 °FSunny.14 mph73%29.80 "Hg10 mi
7:20 PM68 °FSunny.14 mph69%29.80 "Hg10 mi
6:50 PM68 °FSunny.15 mph69%29.80 "Hg10 mi
6:20 PM68 °FPassing clouds.15 mph69%29.80 "HgN/A
5:50 PM70 °FPassing clouds.17 mph64%29.80 "HgN/A
5:20 PM72 °FSunny.16 mph61%29.80 "Hg10 mi
4:50 PM70 °FSunny.16 mph64%29.80 "Hg10 mi
4:20 PM70 °FSunny.17 mph64%29.80 "Hg10 mi
3:50 PM70 °FSunny.16 mph64%29.83 "Hg10 mi
3:20 PM70 °FSunny.17 mph64%29.83 "Hg10 mi
2:50 PM70 °FSunny.18 mph64%29.83 "Hg10 mi
2:20 PM70 °FSunny.20 mph64%29.83 "Hg10 mi
1:50 PM68 °FSunny.18 mph69%29.83 "Hg10 mi
1:20 PM68 °FSunny.20 mph69%29.83 "Hg10 mi
12:50 PM66 °FSunny.17 mph73%29.86 "Hg10 mi
12:20 PM66 °FClear.20 mph73%29.86 "Hg6 mi
11:50 AM64 °FClear.21 mph73%29.86 "Hg5 mi
11:20 AM64 °FClear.21 mph73%29.86 "Hg5 mi
10:50 AM64 °FClear.23 mph73%29.86 "Hg5 mi
10:20 AM63 °FClear.21 mph77%29.86 "Hg4 mi
9:50 AM61 °FClear.21 mph83%29.86 "Hg4 mi
9:20 AM61 °FClear.21 mph83%29.86 "Hg4 mi
8:50 AM59 °FScattered clouds.20 mph88%29.86 "Hg4 mi
8:20 AM59 °FScattered clouds.17 mph88%29.86 "Hg4 mi
7:50 AM59 °FPassing clouds.17 mph88%29.86 "Hg4 mi
7:20 AM59 °FPassing clouds.21 mph88%29.86 "Hg2 mi
6:50 AM61 °FPassing clouds.17 mph88%29.86 "Hg2 mi
6:20 AM61 °FRain. Low clouds.18 mph88%29.86 "Hg2 mi
5:50 AM61 °FPassing clouds.16 mph88%29.86 "Hg2 mi
5:20 AM61 °FPassing clouds.15 mph88%29.86 "Hg2 mi
4:50 AM59 °FPassing clouds.14 mph94%29.86 "Hg2 mi
4:20 AM59 °FHaze.18 mph94%29.86 "Hg2 mi
3:50 AM59 °FHaze.17 mph94%29.86 "Hg2 mi
3:20 AM61 °FHaze.16 mph88%29.86 "Hg3 mi
2:50 AM61 °FHaze.15 mph88%29.89 "Hg3 mi
2:20 AM61 °FHaze.15 mph88%29.89 "Hg3 mi
1:50 AM61 °FHaze.15 mph88%29.89 "Hg3 mi
1:20 AM63 °FHaze.14 mph83%29.89 "Hg3 mi
12:50 AM63 °FHaze.13 mph83%29.89 "Hg3 mi
12:20 AM63 °FHaze.10 mph88%29.89 "Hg3 mi
11:50 PM
Sep 16
64 °FClear.12 mph83%29.89 "Hg4 mi
11:20 PM64 °FMild.10 mph83%29.89 "Hg4 mi
10:50 PM64 °FMild.10 mph83%29.92 "Hg4 mi
10:20 PM64 °FMild.9 mph83%29.92 "Hg4 mi
9:50 PM64 °FPassing clouds.8 mph88%29.92 "Hg5 mi
9:20 PM66 °FPassing clouds.8 mph83%29.92 "HgN/A
Weather by CustomWeather, © 2014

See weather overviewHow to use our weather pages